Location: *
(46.1833°N, 22.7667°E)
Time: 08:21:23
(UTC+00:00)

NOSS 3-4 (A) - Pass Details

Date: 17 September 2019
Orbit: 910 x 1303 km, 63.4° (Epoch: 21 September)

Event Time Altitude Azimuth Distance (km) Brightness Sun altitude
Rises 18:45:33 0° 319° (NW) 3,849 7.8 -22.0°
Reaches altitude 10° 18:48:08 10° 316° (NW) 2,945 7.0 -22.4°
Maximum altitude 18:55:02 61° 238° (WSW) 1,313 4.2 -23.5°
Enters shadow 18:59:03 29° 170° (S) 2,052 4.8 -24.0°
